Weather History for KPIR - March, 2014

Change the Weather History Date:

Monday, March 31, 2014

  Actual Average Record
Temperature  
Mean Temperature 27 °F 40 °F  
Max Temperature 38 °F 52 °F 86 °F (1946)
Min Temperature 16 °F 29 °F 5 °F (1975)
Degree Days  
Heating Degree Days 38 25  
Month to date heating degree days 1073 947  
Since 1 July heating degree days 7068 6445  
Cooling Degree Days 0 0  
Month to date cooling degree days 0 0  
Year to date cooling degree days 0 0  
Moisture  
Dew Point 18 °F    
Average Humidity 79    
Maximum Humidity 91    
Minimum Humidity 67    
Precipitation  
Precipitation 0.07 in 0.06 in 1.28 in (1981)
Month to date precipitation 0.34 1.23  
Year to date precipitation 0.91 2.24  
Snow  
Snow 0.00 in 0.20 in 6.00 in (2014)
Month to date snowfall 3.7 6.0  
Since 1 July snowfall 28.6 27.8  
Snow Depth 0.00 in    
Sea Level Pressure  
Sea Level Pressure 29.76 in    
Wind  
Wind Speed 29 mph (NNW)    
Max Wind Speed 41 mph    
Max Gust Speed 50 mph    
Visibility 4 miles    
Events Fog , Snow    
T = Trace of Precipitation, MM = Missing Value Source: NWS Daily Summary

Daily Weather History Graph

Daily Weather History Graph

Search for Another Location

Airport or City:

Trip Planner

Search our weather history database for the weather conditions in past years. The results will help you decide how hot, cold, wet, or windy it might be!

Date:

Astronomy

Mar. 31, 2014 Rise Set
Actual Time 7:23 AM CDT 8:07 PM CDT
Civil Twilight 6:54 AM CDT 8:36 PM CDT
Nautical Twilight 6:19 AM CDT 9:11 PM CDT
Astronomical Twilight 5:43 AM CDT 9:47 PM CDT
Moon 7:46 AM CDT (3/31) 9:31 PM CDT (3/31)
Length of Visible Light 13h 41m
Length of Day
12h 43m
New Moon, 1% of the Moon is Illuminated
Mar 31
New Moon
Apr 7
First Quarter
Apr 15
Full
Apr 22
Last Quarter
Apr 29
New

Hourly Weather History & Observations

Time (CDT) Temp. Windchill Dew Point Humidity Pressure Visibility Wind Dir Wind Speed Gust Speed Precip Events Conditions
12:53 AM 39.0 °F 26.8 °F 33.1 °F 79% 29.52 in 10.0 mi ENE 32.2 mph 38.0 mph N/A   Clear
1:53 AM 37.0 °F 27.4 °F 32.0 °F 82% 29.54 in 10.0 mi ENE 17.3 mph 33.4 mph N/A   Mostly Cloudy
2:53 AM 34.0 °F 22.1 °F 30.0 °F 85% 29.49 in 10.0 mi NE 21.9 mph 32.2 mph N/A   Overcast
3:31 AM 33.1 °F 20.3 °F 28.9 °F 85% 29.46 in 9.0 mi NNE 24.2 mph - N/A   Overcast
3:53 AM 32.0 °F 18.1 °F 28.9 °F 88% 29.46 in 9.0 mi NE 27.6 mph 40.3 mph N/A   Overcast
4:53 AM 30.9 °F 17.8 °F 27.0 °F 85% 29.49 in 9.0 mi NNE 23.0 mph 31.1 mph N/A   Overcast
5:53 AM 30.0 °F 16.0 °F 26.1 °F 85% 29.50 in 10.0 mi NNE 25.3 mph 34.5 mph N/A   Overcast
6:53 AM 30.0 °F 16.6 °F 26.1 °F 85% 29.55 in 10.0 mi NNE 23.0 mph 33.4 mph N/A   Overcast
7:53 AM 30.0 °F 15.7 °F 25.0 °F 82% 29.57 in 10.0 mi North 26.5 mph 38.0 mph N/A   Overcast
8:26 AM 30.0 °F 15.2 °F 26.1 °F 85% 29.55 in 10.0 mi North 28.8 mph 36.8 mph N/A   Overcast
8:53 AM 30.0 °F 15.7 °F 26.1 °F 85% 29.59 in 10.0 mi North 26.5 mph 39.1 mph N/A   Overcast
9:53 AM 28.0 °F 12.8 °F 24.1 °F 85% 29.63 in 10.0 mi North 27.6 mph 44.9 mph 0.00 in   Overcast
10:06 AM 27.0 °F 10.0 °F 23.0 °F 85% 29.60 in 7.0 mi North 33.4 mph 40.3 mph 0.00 in Snow Light Snow
10:53 AM 24.1 °F 6.6 °F 19.9 °F 84% 29.67 in 6.0 mi NNW 31.1 mph 41.4 mph 0.00 in Snow Light Snow
11:40 AM 19.0 °F -0.5 °F 14.0 °F 81% 29.65 in 4.0 mi NNW 32.2 mph 41.4 mph 0.00 in Snow Light Snow
11:53 AM 19.0 °F -1.3 °F 12.9 °F 77% 29.70 in 3.0 mi NNW 35.7 mph 46.0 mph 0.00 in Snow Light Snow
12:06 PM 18.0 °F -1.4 °F 12.9 °F 81% 29.66 in 2.5 mi NNW 29.9 mph 44.9 mph 0.00 in Snow Light Snow
12:31 PM 18.0 °F -2.3 °F 12.9 °F 81% 29.68 in 1.0 mi NNW 33.4 mph 42.6 mph 0.00 in Snow Light Snow
12:39 PM 17.1 °F -3.2 °F 12.9 °F 84% 29.68 in 0.5 mi NNW 32.2 mph 42.6 mph 0.00 in Fog , Snow Snow
12:53 PM 17.1 °F -3.2 °F 12.9 °F 84% 29.75 in 0.5 mi NNW 32.2 mph 41.4 mph 0.00 in Fog , Snow Snow
1:22 PM 17.1 °F -3.0 °F 12.9 °F 84% 29.70 in 0.2 mi NNW 31.1 mph 41.4 mph 0.02 in Fog , Snow Snow
1:30 PM 17.1 °F -3.2 °F 12.9 °F 84% 29.71 in 0.2 mi NNW 32.2 mph 42.6 mph 0.02 in Fog , Snow Snow
1:53 PM 16.0 °F -4.4 °F 12.9 °F 88% 29.79 in 0.2 mi NNW 31.1 mph 42.6 mph 0.04 in Fog , Snow Snow
2:53 PM 17.1 °F -1.7 °F 14.0 °F 88% 29.81 in 0.2 mi NNW 26.5 mph 44.9 mph 0.03 in Fog , Snow Heavy Snow
3:53 PM 19.0 °F -0.8 °F 16.0 °F 88% 29.83 in 0.2 mi NNW 33.4 mph 41.4 mph 0.00 in Fog , Snow Heavy Snow
4:33 PM 19.9 °F -0.1 °F 17.1 °F 89% 29.79 in 0.2 mi NNW 35.7 mph 42.6 mph 0.00 in Fog , Snow Heavy Snow
4:53 PM 19.9 °F -0.8 °F 17.1 °F 89% 29.87 in 0.2 mi NNW 39.1 mph 47.2 mph 0.00 in Fog , Snow Light Snow
6:53 PM 21.0 °F 1.7 °F 18.0 °F 88% 29.95 in 0.2 mi NW 34.5 mph 42.6 mph 0.00 in Fog , Snow Light Snow
7:53 PM 21.0 °F 2.2 °F 17.1 °F 85% 29.99 in 0.2 mi NW 32.2 mph 44.9 mph 0.00 in Fog , Snow Light Snow
8:04 PM 21.0 °F 1.4 °F 16.0 °F 81% 29.93 in 0.2 mi NW 35.7 mph 47.2 mph 0.00 in Snow Heavy Snow
8:13 PM 21.0 °F 2.2 °F 16.0 °F 81% 29.93 in 0.5 mi NW 32.2 mph 44.9 mph 0.00 in Snow Blowing Snow
8:24 PM 19.9 °F 0.7 °F 16.0 °F 85% 29.94 in 1.2 mi NW 32.2 mph 41.4 mph 0.00 in Snow Blowing Snow
8:53 PM 19.9 °F -0.3 °F 15.1 °F 81% 30.01 in 0.8 mi NW 36.8 mph 44.9 mph 0.00 in Snow Light Snow
9:09 PM 19.9 °F 0.7 °F 14.0 °F 78% 29.95 in 1.2 mi NW 32.2 mph 39.1 mph 0.00 in Snow Blowing Snow
9:44 PM 19.9 °F 1.3 °F 14.0 °F 78% 29.98 in 2.5 mi NW 29.9 mph - 0.00 in Snow Blowing Snow
9:53 PM 19.0 °F -0.3 °F 12.9 °F 77% 30.07 in 2.5 mi NW 31.1 mph - 0.00 in Snow Blowing Snow
10:09 PM 19.9 °F 0.7 °F 12.9 °F 74% 30.01 in 1.5 mi NW 32.2 mph 40.3 mph N/A Snow Blowing Snow
10:18 PM 19.0 °F 0.0 °F 12.9 °F 77% 30.01 in 1.5 mi NW 29.9 mph 41.4 mph N/A Snow Blowing Snow
10:35 PM 19.0 °F 1.6 °F 12.0 °F 74% 30.02 in 3.0 mi NW 24.2 mph 33.4 mph N/A Snow Blowing Snow
10:53 PM 19.0 °F 0.3 °F 12.0 °F 74% 30.11 in 4.0 mi NW 28.8 mph 35.7 mph N/A Snow Blowing Snow
11:53 PM 18.0 °F 0.6 °F 9.0 °F 68% 30.13 in 10.0 mi NW 23.0 mph - N/A   Clear